K0FJ-1 Weather Reports


Display with metric or nautical units.
time (UTC)temp
F
wind
direction
speed
MPH
gust
MPH
rain 1hr
in
rain 24hr
in
rain mn
in
humidity
%
barometer
mb
20260901062003 75 243 0.0 3.0 0.00 0.11 0.00 72 1017.2
20260901061503 75 346 1.0 5.0 0.00 0.12 0.00 71 1016.9
20260901061003 75 330 2.0 7.0 0.00 0.12 0.00 71 1016.8
20260901060503 75 324 2.0 7.0 0.00 0.12 0.00 68 1016.9
20260901060003 75 341 0.0 3.0 0.00 0.12 0.00 68 1016.7
20260901055503 75 0 0.0 0.0 0.00 0.12 0.00 69 1016.5
20260901055003 76 0 0.0 0.0 0.00 0.13 0.00 68 1016.5
20260901054503 76 0 0.0 0.0 0.00 0.13 0.00 67 1016.5
20260901054003 76 0 0.0 0.0 0.00 0.13 0.00 67 1016.5
20260901053503 76 0 0.0 0.0 0.00 0.13 0.00 67 1016.2
20260901053003 76 211 0.0 2.0 0.00 0.13 0.00 66 1016.1
20260901052503 76 211 0.0 2.0 0.00 0.13 0.00 66 1016.3
20260901052003 76 0 0.0 0.0 0.00 0.13 0.00 67 1016.1
20260901051503 77 0 0.0 0.0 0.00 0.13 0.00 66 1016.0
20260901051003 77 0 0.0 0.0 0.00 0.13 0.00 65 1016.2
20260901050503 77 0 0.0 0.0 0.00 0.13 0.00 66 1016.1
20260901050004 77 0 0.0 0.0 0.00 0.13 0.00 66 1016.8
20260901045503 77 306 0.0 1.0 0.00 0.13 0.13 65 1017.0
20260901045003 77 285 0.0 3.0 0.00 0.13 0.13 64 1017.0
20260901044505 77 267 1.0 3.0 0.00 0.13 0.13 64 1017.2
20260901044003 77 264 1.0 5.0 0.00 0.13 0.13 64 1017.7
20260901043503 78 275 3.0 6.0 0.00 0.13 0.13 64 1018.1
20260901043003 78 273 4.0 8.0 0.00 0.13 0.13 63 1018.1
20260901042503 78 269 5.0 11.0 0.00 0.13 0.13 63 1018.4
20260901042003 78 258 5.0 11.0 0.00 0.13 0.13 62 1018.5
20260901041503 79 244 6.0 12.0 0.00 0.13 0.13 64 1018.8
20260901041003 78 235 6.0 12.0 0.00 0.13 0.13 66 1019.0
20260901040503 79 219 3.0 10.0 0.00 0.13 0.13 67 1018.9
20260901040003 79 214 1.0 5.0 0.00 0.13 0.13 67 1018.3
20260901035503 79 222 0.0 3.0 0.00 0.13 0.13 67 1018.2
20260901035003 80 0 0.0 0.0 0.00 0.13 0.13 66 1018.1
20260901034503 80 0 0.0 0.0 0.00 0.13 0.13 66 1017.9
20260901034003 80 0 0.0 0.0 0.00 0.13 0.13 65 1017.9
20260901033503 80 0 0.0 0.0 0.00 0.13 0.13 65 1018.0
20260901033003 80 318 1.0 4.0 0.00 0.13 0.13 65 1018.1
20260901032503 80 313 2.0 8.0 0.00 0.13 0.13 64 1018.1
20260901032003 80 311 2.0 8.0 0.00 0.13 0.13 64 1018.2
20260901031503 80 327 2.0 8.0 0.00 0.13 0.13 65 1018.1
20260901031003 80 330 3.0 9.0 0.00 0.13 0.13 65 1018.0
20260901030503 80 330 1.0 9.0 0.00 0.13 0.13 65 1018.0
20260901030003 80 0 0.0 0.0 0.00 0.13 0.13 64 1017.8
20260901025503 81 0 0.0 0.0 0.00 0.13 0.13 64 1017.5
20260901025003 81 0 0.0 0.0 0.00 0.13 0.13 65 1017.6
20260901024503 81 0 0.0 0.0 0.00 0.13 0.13 65 1017.5
20260901024003 81 0 0.0 0.0 0.00 0.13 0.13 66 1017.5
20260901023503 81 0 0.0 0.0 0.00 0.13 0.13 65 1017.4
20260901023003 80 0 0.0 0.0 0.00 0.13 0.13 66 1017.4
20260901022503 80 0 0.0 0.0 0.00 0.13 0.13 66 1017.5
20260901022003 80 0 0.0 0.0 0.00 0.13 0.13 67 1017.4
20260901021503 80 0 0.0 0.0 0.00 0.13 0.13 67 1017.2
20260901021003 80 0 0.0 0.0 0.00 0.13 0.13 66 1017.1
20260901020503 81 0 0.0 0.0 0.00 0.13 0.13 66 1017.0
20260901020003 81 0 0.0 0.0 0.00 0.13 0.13 66 1016.8
20260901015503 81 0 0.0 0.0 0.00 0.13 0.13 65 1016.7
20260901015003 81 0 0.0 0.0 0.00 0.13 0.13 64 1016.6
20260901014503 81 0 0.0 0.0 0.00 0.13 0.13 64 1016.5
20260901014003 82 0 0.0 0.0 0.00 0.13 0.13 63 1016.3
20260901013503 82 0 0.0 0.0 0.00 0.13 0.13 62 1016.2
20260901013003 82 0 0.0 0.0 0.00 0.13 0.13 62 1016.1
20260901012503 82 0 0.0 0.0 0.00 0.13 0.13 61 1016.0
20260901012003 82 0 0.0 0.0 0.00 0.13 0.13 61 1015.9
20260901011503 83 0 0.0 0.0 0.00 0.13 0.13 60 1015.8
20260901011004 83 0 0.0 0.0 0.00 0.13 0.13 59 1015.7
20260901010503 83 0 0.0 0.0 0.00 0.13 0.13 58 1015.7
20260901010003 84 0 0.0 0.0 0.00 0.13 0.13 58 1015.6
20260901005503 84 0 0.0 0.0 0.00 0.13 0.13 57 1015.5
20260901005003 84 0 0.0 0.0 0.00 0.13 0.13 56 1015.5
20260901004503 85 0 0.0 0.0 0.00 0.13 0.13 55 1015.6
20260901004003 85 0 0.0 0.0 0.00 0.13 0.13 54 1015.5
20260901003503 86 0 0.0 0.0 0.00 0.13 0.13 53 1015.5
20260901003003 87 0 0.0 0.0 0.00 0.13 0.13 52 1015.5
20260901002503 87 0 0.0 0.0 0.00 0.13 0.13 51 1015.6
20260901002003 88 0 0.0 0.0 0.00 0.13 0.13 49 1015.6
20260901001503 89 0 0.0 0.0 0.00 0.13 0.13 48 1015.6
20260901001003 90 0 0.0 0.0 0.00 0.13 0.13 46 1015.8
20260901000503 91 0 0.0 0.0 0.00 0.13 0.13 45 1015.9
20260901000003 91 0 0.0 0.0 0.00 0.13 0.13 44 1015.9
20260831235503 92 0 0.0 0.0 0.00 0.13 0.13 44 1015.9
20260831235003 93 0 0.0 0.0 0.00 0.13 0.13 43 1015.7
20260831234503 93 0 0.0 0.0 0.00 0.13 0.13 41 1015.8
20260831234003 93 48 0.0 1.0 0.00 0.13 0.13 42 1015.8
20260831233503 93 48 0.0 2.0 0.00 0.13 0.13 43 1015.7
20260831233003 93 48 0.0 2.0 0.00 0.13 0.13 43 1015.7
20260831232503 94 48 0.0 2.0 0.00 0.13 0.13 44 1015.7
20260831232003 94 48 0.0 2.0 0.00 0.13 0.13 44 1015.8
20260831231503 94 48 0.0 1.0 0.00 0.13 0.13 42 1015.9
20260831231003 94 48 0.0 1.0 0.00 0.13 0.13 43 1015.8
20260831230503 94 48 0.0 1.0 0.00 0.13 0.13 44 1015.9
20260831230003 94 48 0.0 1.0 0.00 0.13 0.13 44 1015.9
20260831225503 94 48 0.0 1.0 0.00 0.13 0.13 43 1016.0
20260831225003 94 43 0.0 1.0 0.00 0.13 0.13 43 1016.1
20260831224503 94 38 0.0 2.0 0.00 0.13 0.13 45 1016.1
20260831224003 94 37 0.0 2.0 0.00 0.13 0.13 45 1016.1
20260831223503 94 37 0.0 1.0 0.00 0.13 0.13 46 1016.2
20260831223003 94 37 0.0 1.0 0.00 0.13 0.13 44 1016.2
20260831222503 94 37 0.0 1.0 0.00 0.13 0.13 44 1016.2
20260831222003 94 37 0.0 1.0 0.00 0.13 0.13 45 1016.3
20260831221503 94 37 0.0 1.0 0.00 0.13 0.13 45 1016.3
20260831221003 94 67 0.0 1.0 0.00 0.13 0.13 45 1016.2
20260831220503 94 67 0.0 1.0 0.00 0.13 0.13 44 1016.3
20260831220003 94 107 0.0 1.0 0.00 0.13 0.13 42 1016.2
20260831215503 94 55 0.0 2.0 0.00 0.13 0.13 45 1016.3
20260831215003 94 37 0.0 2.0 0.00 0.13 0.13 45 1016.3
20260831214503 94 70 0.0 2.0 0.00 0.13 0.13 47 1016.5
20260831214003 94 71 0.0 4.0 0.00 0.13 0.13 45 1016.5
20260831213503 94 74 0.0 4.0 0.00 0.13 0.13 46 1016.4
20260831213003 94 78 0.0 2.0 0.00 0.13 0.13 45 1016.5
20260831212503 94 89 0.0 2.0 0.00 0.13 0.13 46 1016.5
20260831212003 94 118 0.0 2.0 0.00 0.13 0.13 44 1016.6
20260831211503 94 76 0.0 2.0 0.00 0.13 0.13 44 1016.6
20260831211003 94 55 0.0 2.0 0.00 0.13 0.13 45 1016.7
20260831210503 94 39 0.0 2.0 0.00 0.13 0.13 46 1016.8
20260831210003 94 49 0.0 2.0 0.00 0.13 0.13 47 1016.8
20260831205503 94 59 0.0 2.0 0.00 0.13 0.13 46 1016.9
20260831205003 94 68 0.0 2.0 0.00 0.13 0.13 45 1016.9
20260831204503 94 134 1.0 3.0 0.00 0.13 0.13 45 1016.9
20260831204003 94 173 2.0 10.0 0.00 0.13 0.13 45 1017.0
20260831203503 94 172 2.0 10.0 0.00 0.13 0.13 42 1017.1
20260831203003 94 166 1.0 7.0 0.00 0.13 0.13 43 1017.1
20260831202503 93 314 1.0 3.0 0.00 0.13 0.13 44 1017.1
20260831202003 93 324 3.0 4.0 0.00 0.13 0.13 38 1017.2
20260831201503 93 322 2.0 5.0 0.00 0.13 0.13 38 1017.3
20260831201003 93 325 1.0 5.0 0.00 0.13 0.13 40 1017.3
20260831200503 92 345 2.0 6.0 0.00 0.13 0.13 39 1017.3
20260831200003 92 346 2.0 6.0 0.00 0.13 0.13 39 1017.3
20260831195503 92 326 2.0 6.0 0.00 0.13 0.13 39 1017.4
20260831195003 92 304 2.0 6.0 0.00 0.13 0.13 39 1017.4
20260831194503 92 276 1.0 8.0 0.00 0.13 0.13 42 1017.4
20260831194003 91 311 2.0 8.0 0.00 0.13 0.13 38 1017.5
20260831193503 91 330 2.0 6.0 0.00 0.13 0.13 39 1017.5
20260831193003 92 4 1.0 5.0 0.00 0.13 0.13 40 1017.5
20260831192503 92 350 1.0 5.0 0.00 0.13 0.13 41 1017.6
20260831192003 92 342 1.0 5.0 0.00 0.13 0.13 40 1017.6
20260831191503 92 0 0.0 0.0 0.00 0.13 0.13 40 1017.7
20260831191003 91 3 0.0 1.0 0.00 0.13 0.13 43 1017.6
20260831190503 91 353 1.0 5.0 0.00 0.13 0.13 42 1017.6
20260831190003 91 344 1.0 5.0 0.00 0.13 0.13 43 1017.7
20260831185503 91 341 1.0 5.0 0.00 0.13 0.13 45 1017.6
20260831185003 91 346 1.0 5.0 0.00 0.13 0.13 43 1017.7
20260831184503 91 180 0.0 4.0 0.00 0.13 0.13 48 1017.8
20260831184003 91 186 1.0 4.0 0.00 0.13 0.13 46 1017.8
20260831183503 90 298 1.0 3.0 0.00 0.13 0.13 50 1017.8
20260831183003 90 305 1.0 3.0 0.00 0.13 0.13 45 1018.0
20260831182503 90 219 0.0 2.0 0.00 0.13 0.13 47 1017.9
20260831182003 89 181 0.0 2.0 0.00 0.13 0.13 49 1017.9
20260831181503 88 214 1.0 4.0 0.00 0.13 0.13 49 1018.0
20260831181003 88 281 1.0 4.0 0.00 0.13 0.13 50 1018.0
20260831180503 88 324 2.0 4.0 0.00 0.13 0.13 49 1018.1
20260831180003 88 331 2.0 4.0 0.00 0.13 0.13 48 1018.1
20260831175503 88 341 1.0 5.0 0.00 0.13 0.13 49 1018.1
20260831175003 88 333 1.0 5.0 0.00 0.13 0.13 55 1018.1
20260831174503 88 320 0.0 3.0 0.00 0.13 0.13 50 1018.2
20260831174003 88 316 0.0 4.0 0.00 0.13 0.13 53 1018.2
20260831173503 87 315 1.0 4.0 0.00 0.13 0.13 55 1018.2
20260831173003 87 24 1.0 3.0 0.00 0.13 0.13 53 1018.2
20260831172503 86 354 1.0 4.0 0.00 0.13 0.13 53 1018.2
20260831172003 87 325 2.0 5.0 0.00 0.13 0.13 51 1018.2
20260831171503 87 298 1.0 5.0 0.00 0.13 0.13 50 1018.3
20260831171003 87 251 1.0 3.0 0.00 0.13 0.13 51 1018.3
20260831170504 86 191 1.0 5.0 0.00 0.13 0.13 51 1018.3
20260831170003 85 201 2.0 5.0 0.00 0.13 0.13 53 1018.3
20260831165503 84 209 1.0 5.0 0.00 0.13 0.13 53 1018.3
20260831165003 84 226 0.0 3.0 0.00 0.13 0.13 55 1018.3
20260831164503 83 309 1.0 4.0 0.00 0.13 0.13 54 1018.4
20260831164003 83 305 1.0 4.0 0.00 0.13 0.13 55 1018.2
20260831163503 82 282 1.0 4.0 0.00 0.13 0.13 57 1018.2
20260831163003 82 289 1.0 6.0 0.00 0.13 0.13 57 1018.2
20260831162503 81 297 1.0 6.0 0.00 0.13 0.13 59 1018.2
20260831162003 81 286 1.0 4.0 0.00 0.13 0.13 59 1018.3
20260831161503 80 242 1.0 4.0 0.00 0.13 0.13 62 1018.3
20260831161003 80 221 1.0 6.0 0.00 0.13 0.13 61 1018.3
20260831160503 79 238 2.0 6.0 0.00 0.13 0.13 64 1018.3
20260831160003 78 230 1.0 5.0 0.00 0.13 0.13 64 1018.3
20260831155503 78 234 1.0 5.0 0.00 0.13 0.13 66 1018.2
20260831155003 77 274 1.0 4.0 0.00 0.13 0.13 64 1018.2
20260831154503 77 277 1.0 4.0 0.00 0.13 0.13 66 1018.2
20260831154003 77 262 2.0 4.0 0.00 0.13 0.13 67 1018.2
20260831153503 76 249 2.0 4.0 0.00 0.13 0.13 66 1018.1
20260831153003 76 267 1.0 3.0 0.00 0.13 0.13 70 1018.1
20260831152503 76 283 1.0 3.0 0.00 0.13 0.13 72 1018.2
20260831152003 75 248 1.0 4.0 0.00 0.13 0.13 72 1018.2
20260831151503 75 254 2.0 8.0 0.00 0.13 0.13 73 1018.2
20260831151003 75 270 3.0 8.0 0.00 0.13 0.13 73 1018.2
20260831150503 74 279 3.0 6.0 0.00 0.13 0.13 75 1018.2
20260831150003 74 285 2.0 4.0 0.00 0.13 0.13 77 1018.2
20260831145503 73 270 1.0 4.0 0.00 0.13 0.13 80 1018.2
20260831145003 72 257 1.0 5.0 0.00 0.13 0.13 81 1018.2
20260831144503 72 277 2.0 6.0 0.00 0.13 0.13 82 1018.2
20260831144003 72 268 3.0 7.0 0.00 0.13 0.13 81 1018.2
20260831143503 71 267 3.0 7.0 0.00 0.13 0.13 83 1018.2
20260831143003 71 289 3.0 7.0 0.00 0.13 0.13 85 1018.1
20260831142503 70 298 3.0 6.0 0.00 0.13 0.13 86 1018.1
20260831142003 70 296 3.0 7.0 0.00 0.13 0.13 86 1018.2
20260831141503 69 282 2.0 7.0 0.00 0.13 0.13 88 1018.1
20260831141003 69 279 2.0 4.0 0.00 0.13 0.13 89 1018.1
20260831140503 68 298 2.0 4.0 0.00 0.13 0.13 90 1018.1
20260831140003 68 310 1.0 4.0 0.00 0.13 0.13 90 1018.1
20260831135503 67 305 1.0 4.0 0.00 0.13 0.13 91 1017.9
20260831135003 67 297 0.0 3.0 0.00 0.13 0.13 91 1018.0
20260831134503 67 0 0.0 0.0 0.00 0.13 0.13 91 1017.9
20260831134003 67 0 0.0 0.0 0.00 0.13 0.13 91 1018.1
20260831133503 67 0 0.0 0.0 0.00 0.13 0.13 91 1017.9
20260831133003 67 281 0.0 2.0 0.00 0.13 0.13 91 1018.0
20260831132503 67 251 1.0 4.0 0.00 0.13 0.13 92 1018.1
20260831132004 66 278 2.0 6.0 0.00 0.13 0.13 92 1018.0
20260831131503 66 295 2.0 6.0 0.00 0.13 0.13 93 1017.7
20260831131004 66 303 1.0 4.0 0.00 0.13 0.13 94 1017.8
20260831130503 65 308 0.0 4.0 0.00 0.13 0.13 94 1017.7
20260831130003 65 0 0.0 0.0 0.00 0.13 0.13 94 1017.9
20260831125503 65 0 0.0 0.0 0.00 0.13 0.13 94 1017.9
20260831125003 65 0 0.0 0.0 0.00 0.13 0.13 94 1017.7
20260831124503 65 0 0.0 0.0 0.00 0.13 0.13 93 1017.7
20260831124003 65 0 0.0 0.0 0.00 0.13 0.13 93 1017.7
20260831123503 65 0 0.0 0.0 0.00 0.13 0.13 93 1017.6
20260831123003 65 0 0.0 0.0 0.00 0.13 0.13 93 1017.6
20260831122503 65 0 0.0 0.0 0.00 0.13 0.13 93 1017.6
20260831122003 65 0 0.0 0.0 0.00 0.13 0.13 93 1017.5
20260831121503 65 0 0.0 0.0 0.00 0.13 0.13 93 1017.5
20260831121003 65 0 0.0 0.0 0.00 0.13 0.13 93 1017.5
20260831120503 65 0 0.0 0.0 0.00 0.13 0.13 93 1017.5
20260831120003 65 0 0.0 0.0 0.00 0.13 0.13 93 1017.6
20260831115503 65 0 0.0 0.0 0.00 0.13 0.13 93 1017.4
20260831115003 65 0 0.0 0.0 0.00 0.13 0.13 92 1017.4
20260831114503 65 311 0.0 2.0 0.00 0.13 0.13 92 1017.2
20260831114003 66 311 0.0 3.0 0.00 0.13 0.13 92 1017.3
20260831113503 66 311 0.0 3.0 0.00 0.13 0.13 92 1017.2
20260831113003 66 311 0.0 3.0 0.00 0.13 0.13 92 1017.1
20260831112503 66 311 0.0 3.0 0.00 0.13 0.13 92 1017.1
20260831112003 66 311 0.0 3.0 0.00 0.13 0.13 92 1017.1
20260831111503 66 311 1.0 3.0 0.00 0.13 0.13 91 1017.0
20260831111003 66 315 3.0 7.0 0.00 0.13 0.13 91 1017.0
20260831110503 66 312 3.0 7.0 0.00 0.13 0.13 91 1017.1
20260831110003 66 306 2.0 6.0 0.00 0.13 0.13 91 1016.9
20260831105503 66 314 2.0 10.0 0.00 0.13 0.13 91 1016.9
20260831105003 66 326 3.0 10.0 0.00 0.13 0.13 91 1016.7
20260831104503 66 334 1.0 6.0 0.00 0.13 0.13 91 1016.6
20260831104003 66 196 1.0 3.0 0.00 0.13 0.13 92 1016.3
20260831103503 66 194 1.0 3.0 0.00 0.13 0.13 92 1016.0
20260831103003 66 177 0.0 2.0 0.00 0.13 0.13 92 1015.7
20260831102503 66 162 0.0 1.0 0.00 0.13 0.13 92 1015.6
20260831102003 66 171 0.0 2.0 0.00 0.13 0.13 92 1015.6
20260831101503 66 173 0.0 2.0 0.01 0.13 0.13 92 1015.4
20260831101003 66 74 0.0 2.0 0.01 0.13 0.13 92 1015.5
20260831100503 66 108 1.0 3.0 0.01 0.13 0.13 93 1015.2
20260831100003 66 127 0.0 3.0 0.02 0.13 0.13 93 1014.9
20260831095503 66 97 0.0 1.0 0.03 0.13 0.13 93 1015.2
20260831095003 66 0 0.0 0.0 0.04 0.13 0.13 93 1015.5
20260831094503 66 31 0.0 4.0 0.04 0.13 0.13 93 1016.3
20260831094003 66 35 1.0 4.0 0.05 0.13 0.13 93 1016.2
20260831093503 66 37 0.0 4.0 0.05 0.13 0.13 92 1016.2
20260831093003 66 165 0.0 2.0 0.05 0.13 0.13 92 1017.1
20260831092503 67 165 0.0 2.0 0.05 0.13 0.13 92 1017.3
20260831092003 67 165 0.0 2.0 0.06 0.13 0.13 92 1017.3
20260831091503 67 177 1.0 4.0 0.05 0.12 0.12 91 1017.7
20260831091003 67 185 2.0 6.0 0.06 0.12 0.12 91 1017.8
20260831090503 67 186 2.0 6.0 0.06 0.12 0.12 90 1017.9
20260831090003 68 181 2.0 7.0 0.05 0.11 0.11 91 1017.5
20260831085503 68 183 1.0 7.0 0.04 0.10 0.10 91 1017.2
20260831085003 68 178 1.0 6.0 0.03 0.09 0.09 90 1017.2
20260831084503 68 178 2.0 6.0 0.04 0.09 0.09 89 1017.2
20260831084003 68 175 1.0 5.0 0.03 0.08 0.08 88 1017.3
20260831083503 68 165 1.0 5.0 0.03 0.08 0.08 88 1017.0
20260831083003 68 166 1.0 5.0 0.04 0.08 0.08 89 1016.9
20260831082503 68 139 1.0 8.0 0.04 0.08 0.08 89 1016.9
20260831082003 68 153 2.0 11.0 0.03 0.07 0.07 89 1017.0
20260831081503 68 159 3.0 11.0 0.03 0.07 0.07 89 1017.6
20260831081003 68 141 2.0 9.0 0.02 0.06 0.06 89 1018.1
20260831080503 69 135 2.0 7.0 0.02 0.06 0.06 88 1017.5
20260831080003 69 142 2.0 7.0 0.02 0.06 0.06 88 1017.7
20260831075503 69 157 3.0 12.0 0.02 0.06 0.06 87 1017.6
20260831075003 69 170 5.0 12.0 0.02 0.06 0.06 86 1017.8
20260831074503 70 177 6.0 15.0 0.01 0.05 0.05 84 1018.0
20260831074003 70 178 7.0 15.0 0.01 0.05 0.05 82 1018.1
20260831073503 71 176 6.0 16.0 0.02 0.05 0.05 80 1017.9
20260831073003 71 169 4.0 16.0 0.01 0.04 0.04 79 1018.0
20260831072503 71 144 1.0 5.0 0.02 0.04 0.04 79 1017.7
20260831072003 71 159 2.0 9.0 0.02 0.04 0.04 80 1017.8
20260831071503 71 167 2.0 9.0 0.03 0.04 0.04 80 1017.8
20260831071003 71 191 0.0 5.0 0.03 0.04 0.04 80 1017.4
20260831070503 71 0 0.0 0.0 0.03 0.04 0.04 80 1017.3
20260831070003 71 160 0.0 4.0 0.03 0.04 0.04 80 1017.3
20260831065503 71 160 0.0 4.0 0.03 0.04 0.04 82 1017.0
20260831065003 70 162 1.0 7.0 0.04 0.04 0.04 82 1016.5
20260831064503 71 171 2.0 7.0 0.04 0.04 0.04 81 1016.5
20260831064003 71 182 1.0 7.0 0.04 0.04 0.04 81 1017.1
20260831063503 71 0 0.0 0.0 0.03 0.03 0.03 80 1017.5
20260831063003 71 0 0.0 0.0 0.03 0.03 0.03 79 1017.3
20260831062503 71 0 0.0 0.0 0.02 0.02 0.02 78 1017.3